Regional Weather Roundup
Issued by NWS

Home | Current Version | Previous Version | Graphics & Text | Print | Product List | Glossary On
Versions: 1 2 3 4 5 6 7 8 9 10 11 12 13 14 15 16 17 18 19 20 21 22 23 24 25 26 27 28 29 30 31 32 33 34 35 36 37 38 39 40 41 42 43 44 45 46 47 48 49 50
000
ASUS43 KFSD 301010
RWRSD

WEATHER ROUNDUP FOR SOUTH DAKOTA
NATIONAL WEATHER SERVICE SIOUX FALLS SD
500 AM CDT TUE MAY 30 2017

NOTE: "FAIR" INDICATES FEW OR NO CLOUDS BELOW 12,000 FEET WITH NO
SIGNIFICANT WEATHER AND/OR OBSTRUCTIONS TO VISIBILITY.


SDZ001>005-009-010-012>017-301100-
NORTHWEST AND NORTH CENTRAL SOUTH DAKOTA

CITY           SKY/WX    TMP DP  RH WIND       PRES   REMARKS
BUFFALO          N/A     41  32  70 W6        30.05R
FAITH            N/A     44  32  62 W10       30.08S
MOBRIDGE       CLEAR     37  32  82 N6        30.02S
$$

SDZ012>016-024>037-041>051-057-063-072>074-301100-
SOUTHWEST AND SOUTH CENTRAL SOUTH DAKOTA

CITY           SKY/WX    TMP DP  RH WIND       PRES   REMARKS
RAPID CTY ARPT CLEAR     44  29  55 NW9       30.12R
PIERRE         NOT AVBL
CUSTER         CLEAR     37  24  59 CALM      30.17S
ELLSWORTH AFB  CLEAR     38  30  73 W7        30.11R
PHILIP         CLEAR     35  32  88 W9        30.09R WCI  28
PINE RIDGE     CLEAR     36  34  92 CALM      30.13S
SPEARFISH      FAIR      43  28  56 CALM      30.14S
WINNER         FAIR      45  35  68 W8        30.07S
$$

SDZ004>011-016>023-039-040-301100-
NORTHEAST SOUTH DAKOTA

CITY           SKY/WX    TMP DP  RH WIND       PRES   REMARKS
ABERDEEN       CLOUDY    48  38  68 NW8       30.01R
WATERTOWN      CLEAR     48  41  76 NW9       29.97R
BROOKINGS      MOCLDY    46  42  86 W7        29.99R
SISSETON         N/A     50  42  74 NW12      29.94R
$$

SDZ017-020-022-023-036>040-048>070-301100-
SOUTHEAST SOUTH DAKOTA

CITY           SKY/WX    TMP DP  RH WIND       PRES   REMARKS
SIOUX FALLS    CLOUDY    53  43  68 SW5       29.99S
HURON          PTCLDY    40  35  83 W7        30.01R
CHAMBERLAIN    CLEAR     43  39  85 W3        30.06S
MITCHELL       CLEAR     48  39  71 W12       30.02S
YANKTON        PTCLDY    51  43  74 SW8       30.03S
$$

ABBREVIATIONS USED IN REMARKS
   TC - TEMPERATURE IN CELSIUS
  WCI - WIND CHILL INDEX
   HX - HEAT INDEX
  VSB - VISIBILITY




USA.gov is the U.S. government's official web portal to all federal, state and local government web resources and services.